This demonstration page uses our WeatherBlox Daily Observations layout. Learn more.

Left ArrowRight Arrow

Hourly Observations for August 23, 2015

Temp ( °F °C ) Dew Point ( °F °C ) Humidity (%) Winds ( mph kmh ) Pressure ( in mb ) Visibility ( mi km ) Precip ( " mm )
12:53 am 00:53 Clear 87 30.6 59 15 39 39 S 10 17 29.80 1009 10 16 0.00 0.00
1:53 am 01:53 Clear 84 28.9 58 14.4 41 41 S 6 9 29.80 1009 10 16 0.00 0.00
2:53 am 02:53 Clear 84 28.9 58 14.4 41 41 SE 8 13 29.78 1009 10 16 0.00 0.00
3:53 am 03:53 Clear 81 27.2 58 14.4 45 45 Calm 29.79 1009 10 16 0.00 0.00
4:53 am 04:53 Clear 79 26.1 58 14.4 49 49 SE 6 9 29.78 1009 10 16 0.00 0.00
5:53 am 05:53 Clear 77 25 58 14.4 52 52 E 5 7 29.80 1009 10 16 0.00 0.00
6:53 am 06:53 Clear 76 24.4 59 15 56 56 E 6 9 29.81 1010 10 16 0.00 0.00
7:53 am 07:53 Sunny 76 24.4 60 15.6 58 58 ESE 5 7 29.84 1011 10 16 0.00 0.00
8:53 am 08:53 Sunny 78 25.6 61 16.1 56 56 SE 7 11 29.87 1012 10 16 0.00 0.00
9:53 am 09:53 Sunny 83 28.3 61 16.1 48 48 Calm 29.90 1012 10 16 0.00 0.00
10:53 am 10:53 Sunny 88 31.1 61 16.1 40 40 undefined N/A 29.90 1013 10 16 0.00 0.00
11:53 am 11:53 Sunny 93 33.9 59 15 32 32 NNW 8 13 29.91 1013 10 16 0.00 0.00
12:53 pm 12:53 Sunny 97 36.1 58 14.4 27 27 N 9 15 29.90 1012 10 16 0.00 0.00
1:53 pm 13:53 Sunny 99 37.2 57 13.9 25 25 VRB 6 9 29.88 1012 10 16 0.00 0.00
2:46 pm 14:46 Mostly Cloudy with Thunderstorms 97 36.1 59 15 28 28 ENE 12 19 29.77 1008 10 16 0.00 0.00
2:53 pm 14:53 Mostly Cloudy with Thunderstorms 94 34.4 60 15.6 32 32 NNE 22 35 29.86 1011 10 16 0.00 0.00
3:53 pm 15:53 Mostly Cloudy with Thunderstorms 75 23.9 68 20 79 79 NE 15 24 29.89 1012 4 6 0.04 1.02
4:14 pm 16:14 Mostly Cloudy with Nearby Thunderstorms 75 24 66 19 74 74 N 14 22 29.88 1012 10 16 0.00 0.00
4:29 pm 16:29 Mostly Cloudy with Thunderstorms 76 24.4 68 20 77 77 N 12 19 29.88 1012 10 16 0.00 0.03
4:53 pm 16:53 Cloudy with Thunderstorms 76 24.4 68 20 77 77 ESE 9 15 29.94 1014 10 16 0.00 0.03
5:53 pm 17:53 Mostly Cloudy with Nearby Thunderstorms 76 24.4 65 18.3 69 69 ESE 12 19 29.91 1013 10 16 0.02 0.51
6:53 pm 18:53 Partly Cloudy with Nearby Thunderstorms 75 23.9 63 17.2 66 66 ESE 20 31 29.95 1014 10 16 0.00 0.03
7:08 pm 19:08 Sunny with Light Rain 75 24 61 16 61 61 ESE 20 31 29.94 1014 10 16 0.00 0.00
9:53 pm 21:53 Clear 72 22.2 65 18.3 79 79 E 16 26 29.98 1015 10 16 0.00 0.00
10:53 pm 22:53 Clear 72 22.2 64 17.8 76 76 NE 10 17 29.99 1016 10 16 0.00 0.00
11:53 pm 23:53 Clear 73 22.8 64 17.8 74 74 ENE 9 15 29.99 1016 10 16 0.00 0.00

Powered by AerisWeather